Tracking 29892 objects as of 21-Nov-2024
HD Live streaming from Space Station
objects crossing your sky now

FENGYUN 1C DEB

Track FENGYUN 1C DEB now!
10-day predictions


NORAD ID: 30921
Int'l Code: 1999-025AZK
Perigee: 793.0 km
Apogee: 821.5 km
Inclination: 98.9 °
Period: 100.9 minutes
Semi major axis: 7178 km
RCS: 0.037 m2 (small)
Launch date: May 10, 1999
Source: People's Republic of China (PRC)
Launch site: Taiyaun Space Center, China (TSC)

Note: This is SATELLITE DEBRIS
Your satellite tracking list
Your tracking list is empty




NASA's NSSDC Master Catalog

Two Line Element Set (TLE):
1 30921U 99025AZK 24325.19738601  .00006749  00000-0  27577-2 0  9997
2 30921  98.8579  40.1098 0019836  90.9869 289.6572 14.27500291912847
Source of the keplerian elements: AFSPC